Time,TemperatureF,DewpointF,PressureIn,WindDirection,WindDirectionDegrees,WindSpeedMPH,WindSpeedGustMPH,Humidity,HourlyPrecipIn,Conditions,Clouds,dailyrainin,SoftwareType,DateUTC
2013-03-19 00:02:00,35.0,35.0,30.02,WNW,296,0.0,0.0,99,0.00,,,1.10,,2013-03-19 05:02:00,
2013-03-19 00:12:00,35.0,35.0,30.02,WNW,296,0.0,0.0,99,0.00,,,1.10,,2013-03-19 05:12:00,
2013-03-19 00:22:00,34.0,34.0,30.03,WNW,296,0.0,0.0,99,0.00,,,1.10,,2013-03-19 05:22:00,
2013-03-19 00:32:00,34.0,34.0,30.03,WNW,296,0.0,0.0,99,0.00,,,1.10,,2013-03-19 05:32:00,
2013-03-19 00:42:00,34.0,34.0,30.03,WNW,296,0.0,0.0,99,0.00,,,1.10,,2013-03-19 05:42:00,
2013-03-19 00:52:00,34.0,34.0,30.04,WNW,296,0.0,0.0,99,0.00,,,1.10,,2013-03-19 05:52:00,
2013-03-19 01:02:00,33.0,33.0,30.05,WNW,296,0.0,0.0,99,0.00,,,1.10,,2013-03-19 06:02:00,
2013-03-19 01:12:00,33.0,33.0,30.05,WNW,296,0.0,0.0,99,0.00,,,1.10,,2013-03-19 06:12:00,
2013-03-19 01:22:00,33.0,33.0,30.05,WNW,296,0.0,0.0,99,0.00,,,1.10,,2013-03-19 06:22:00,
2013-03-19 01:32:00,33.0,33.0,30.05,WNW,296,0.0,0.0,99,0.00,,,1.10,,2013-03-19 06:32:00,
2013-03-19 01:42:00,33.0,33.0,30.05,WNW,296,0.0,0.0,99,0.00,,,1.10,,2013-03-19 06:42:00,
2013-03-19 01:52:00,32.0,32.0,30.06,WNW,296,0.0,0.0,99,0.00,,,1.10,,2013-03-19 06:52:00,
2013-03-19 02:02:00,32.0,32.0,30.06,WNW,296,0.0,0.0,99,0.00,,,1.10,,2013-03-19 07:02:00,
2013-03-19 02:12:00,32.0,32.0,30.06,WNW,296,0.0,0.0,99,0.00,,,1.10,,2013-03-19 07:12:00,
2013-03-19 02:21:00,32.0,32.0,30.06,WNW,296,0.0,0.0,100,0.00,,,1.10,,2013-03-19 07:21:00,
2013-03-19 02:32:00,32.0,32.0,30.07,WNW,296,0.0,0.0,100,0.00,,,1.10,,2013-03-19 07:32:00,
2013-03-19 02:42:00,32.0,32.0,30.07,WNW,296,0.0,0.0,100,0.00,,,1.10,,2013-03-19 07:42:00,
2013-03-19 02:52:00,32.0,32.0,30.07,WNW,296,0.0,0.0,100,0.00,,,1.10,,2013-03-19 07:52:00,
2013-03-19 03:02:00,32.0,32.0,30.07,WNW,296,0.0,0.0,100,0.00,,,1.10,,2013-03-19 08:02:00,
2013-03-19 03:12:00,32.0,32.0,30.07,WNW,296,0.0,0.0,100,0.00,,,1.10,,2013-03-19 08:12:00,
2013-03-19 03:22:00,31.0,31.0,30.07,WNW,296,0.0,2.0,100,0.00,,,1.03,,2013-03-19 08:22:00,
2013-03-19 03:32:00,32.0,32.0,30.08,WNW,296,0.0,1.0,100,0.00,,,1.03,,2013-03-19 08:32:00,
2013-03-19 03:42:00,32.0,32.0,30.08,WNW,296,0.0,1.0,100,0.00,,,1.03,,2013-03-19 08:42:00,
2013-03-19 03:52:00,32.0,32.0,30.08,WNW,296,0.0,3.0,100,0.00,,,1.03,,2013-03-19 08:52:00,
2013-03-19 04:02:00,32.0,32.0,30.07,WNW,296,0.0,0.0,100,0.00,,,1.03,,2013-03-19 09:02:00,
2013-03-19 04:12:00,32.0,32.0,30.07,WNW,296,0.0,0.0,100,0.00,,,1.03,,2013-03-19 09:12:00,
2013-03-19 04:22:00,31.0,31.0,30.07,WNW,296,0.0,0.0,100,0.00,,,1.02,,2013-03-19 09:22:00,
2013-03-19 04:32:00,31.0,31.0,30.07,WNW,296,0.0,0.0,100,0.00,,,1.02,,2013-03-19 09:32:00,
2013-03-19 04:42:00,31.0,31.0,30.07,WNW,296,0.0,0.0,100,0.00,,,1.02,,2013-03-19 09:42:00,
2013-03-19 04:53:00,31.0,31.0,30.06,WNW,296,0.0,0.0,100,0.00,,,1.02,,2013-03-19 09:53:00,
2013-03-19 05:03:00,31.0,31.0,30.06,WNW,296,0.0,1.0,100,0.00,,,1.02,,2013-03-19 10:03:00,
2013-03-19 05:12:00,31.0,31.0,30.06,WNW,296,0.0,1.0,100,0.00,,,1.02,,2013-03-19 10:12:00,
2013-03-19 05:23:00,31.0,31.0,30.08,WNW,296,0.0,0.0,100,0.00,,,0.85,,2013-03-19 10:23:00,
2013-03-19 05:32:00,31.0,31.0,30.09,WNW,296,0.0,0.0,100,0.00,,,0.85,,2013-03-19 10:32:00,
2013-03-19 05:42:00,31.0,31.0,30.09,WNW,296,0.0,0.0,100,0.00,,,0.85,,2013-03-19 10:42:00,
2013-03-19 05:53:00,31.0,31.0,30.10,WNW,296,0.0,0.0,100,0.00,,,0.85,,2013-03-19 10:53:00,
2013-03-19 06:02:00,31.0,31.0,30.10,WNW,296,0.0,0.0,100,0.00,,,0.85,,2013-03-19 11:02:00,
2013-03-19 06:12:00,31.0,31.0,30.10,WNW,296,0.0,0.0,100,0.00,,,0.85,,2013-03-19 11:12:00,
2013-03-19 06:22:00,30.0,30.0,30.12,WNW,296,0.0,0.0,100,0.00,,,0.77,,2013-03-19 11:22:00,
2013-03-19 06:32:00,30.0,30.0,30.14,WNW,296,0.0,0.0,100,0.00,,,0.77,,2013-03-19 11:32:00,
2013-03-19 06:42:00,30.0,30.0,30.14,WNW,296,0.0,0.0,100,0.00,,,0.77,,2013-03-19 11:42:00,
2013-03-19 06:52:00,30.0,30.0,30.13,WNW,296,0.0,0.0,100,0.00,,,0.77,,2013-03-19 11:52:00,
2013-03-19 07:02:00,30.0,30.0,30.13,WNW,296,0.0,0.0,100,0.00,,,0.77,,2013-03-19 12:02:00,
2013-03-19 07:12:00,30.0,30.0,30.13,WNW,296,0.0,0.0,100,0.00,,,0.77,,2013-03-19 12:12:00,
2013-03-19 07:22:00,30.0,30.0,30.14,WNW,296,0.0,0.0,100,0.00,,,0.33,,2013-03-19 12:22:00,
2013-03-19 07:33:00,30.0,30.0,30.14,WNW,296,0.0,0.0,100,0.00,,,0.33,,2013-03-19 12:33:00,
2013-03-19 07:42:00,30.0,30.0,30.14,WNW,296,0.0,0.0,100,0.00,,,0.33,,2013-03-19 12:42:00,
2013-03-19 07:52:00,30.0,30.0,30.16,WNW,296,1.0,1.0,100,0.00,,,0.33,,2013-03-19 12:52:00,
2013-03-19 08:02:00,31.0,31.0,30.16,WNW,296,0.0,3.0,100,0.00,,,0.33,,2013-03-19 13:02:00,
2013-03-19 08:12:00,31.0,31.0,30.16,WNW,296,0.0,3.0,100,0.00,,,0.33,,2013-03-19 13:12:00,
2013-03-19 08:22:00,33.0,33.0,30.16,WNW,296,0.0,0.0,100,0.00,,,0.04,,2013-03-19 13:22:00,
2013-03-19 08:32:00,35.0,35.0,30.17,WNW,296,0.0,0.0,100,0.00,,,0.04,,2013-03-19 13:32:00,
2013-03-19 08:42:00,35.0,35.0,30.17,WNW,296,0.0,0.0,100,0.00,,,0.04,,2013-03-19 13:42:00,
2013-03-19 08:53:00,36.0,36.0,30.17,WNW,296,1.0,2.0,100,0.01,,,0.05,,2013-03-19 13:53:00,
2013-03-19 09:02:00,36.0,36.0,30.17,NW,319,1.0,6.0,100,0.01,,,0.05,,2013-03-19 14:02:00,
2013-03-19 09:12:00,36.0,36.0,30.17,NW,319,1.0,6.0,100,0.01,,,0.05,,2013-03-19 14:12:00,
2013-03-19 09:22:00,39.0,38.0,30.17,WNW,289,1.0,2.0,98,0.01,,,0.01,,2013-03-19 14:22:00,
2013-03-19 09:32:00,40.0,34.0,30.18,West,281,3.0,6.0,79,0.01,,,0.01,,2013-03-19 14:32:00,
2013-03-19 09:42:00,40.0,34.0,30.18,West,281,3.0,6.0,79,0.01,,,0.01,,2013-03-19 14:42:00,
2013-03-19 09:52:00,41.0,30.0,30.18,WNW,288,5.0,10.0,65,0.00,,,0.01,,2013-03-19 14:52:00,
2013-03-19 10:02:00,41.0,27.0,30.18,NW,305,5.0,11.0,56,0.00,,,0.01,,2013-03-19 15:02:00,
2013-03-19 10:12:00,41.0,27.0,30.18,NW,305,5.0,11.0,56,0.00,,,0.01,,2013-03-19 15:12:00,
2013-03-19 10:22:00,42.0,27.0,30.19,West,264,4.0,7.0,56,0.00,,,0.01,,2013-03-19 15:22:00,
2013-03-19 10:33:00,43.0,28.0,30.20,West,275,5.0,7.0,54,0.00,,,0.01,,2013-03-19 15:33:00,
2013-03-19 10:43:00,43.0,28.0,30.20,West,275,5.0,7.0,54,0.00,,,0.01,,2013-03-19 15:43:00,
2013-03-19 10:53:00,43.0,25.0,30.21,WSW,250,8.0,13.0,49,0.00,,,0.01,,2013-03-19 15:53:00,
2013-03-19 11:03:00,44.0,23.0,30.21,West,264,8.0,12.0,44,0.00,,,0.01,,2013-03-19 16:03:00,
2013-03-19 11:13:00,44.0,23.0,30.21,West,264,8.0,12.0,44,0.00,,,0.01,,2013-03-19 16:13:00,
2013-03-19 11:24:00,45.0,23.0,30.20,West,274,4.0,12.0,41,0.00,,,0.01,,2013-03-19 16:24:00,
2013-03-19 11:34:00,46.0,24.0,30.21,WSW,257,6.0,12.0,41,0.00,,,0.01,,2013-03-19 16:34:00,
2013-03-19 11:44:00,46.0,24.0,30.21,WSW,257,6.0,12.0,41,0.00,,,0.01,,2013-03-19 16:44:00,
2013-03-19 11:54:00,46.0,20.0,30.21,West,261,6.0,11.0,35,0.00,,,0.01,,2013-03-19 16:54:00,
2013-03-19 12:03:00,47.0,21.0,30.22,West,263,5.0,11.0,35,0.00,,,0.01,,2013-03-19 17:03:00,
2013-03-19 12:13:00,47.0,21.0,30.22,West,263,5.0,11.0,35,0.00,,,0.01,,2013-03-19 17:13:00,
2013-03-19 12:23:00,48.0,25.0,30.22,WNW,285,6.0,11.0,41,0.00,,,0.01,,2013-03-19 17:23:00,
2013-03-19 12:34:00,48.0,22.0,30.22,WSW,250,9.0,12.0,35,0.00,,,0.01,,2013-03-19 17:34:00,
2013-03-19 12:44:00,48.0,22.0,30.22,WSW,250,9.0,12.0,35,0.00,,,0.01,,2013-03-19 17:44:00,
2013-03-19 12:53:00,48.0,20.0,30.22,WNW,287,6.0,11.0,32,0.00,,,0.01,,2013-03-19 17:53:00,
2013-03-19 13:03:00,48.0,20.0,30.22,NW,316,7.0,11.0,33,0.00,,,0.01,,2013-03-19 18:03:00,
2013-03-19 13:13:00,48.0,20.0,30.22,NW,316,7.0,11.0,33,0.00,,,0.01,,2013-03-19 18:13:00,
2013-03-19 13:23:00,49.0,18.0,30.22,WNW,292,7.0,14.0,29,0.00,,,0.01,,2013-03-19 18:23:00,
2013-03-19 13:33:00,50.0,19.0,30.22,WNW,292,6.0,13.0,29,0.00,,,0.01,,2013-03-19 18:33:00,
2013-03-19 13:43:00,50.0,19.0,30.22,WNW,292,6.0,13.0,29,0.00,,,0.01,,2013-03-19 18:43:00,
2013-03-19 13:53:00,51.0,22.0,30.21,WSW,258,5.0,14.0,32,0.00,,,0.01,,2013-03-19 18:53:00,
2013-03-19 14:02:00,51.0,23.0,30.21,NW,304,6.0,8.0,33,0.00,,,0.01,,2013-03-19 19:02:00,
2013-03-19 14:12:00,51.0,23.0,30.21,NW,304,6.0,8.0,33,0.00,,,0.01,,2013-03-19 19:12:00,
2013-03-19 14:22:00,51.0,22.0,30.21,West,263,7.0,13.0,32,0.00,,,0.01,,2013-03-19 19:22:00,
2013-03-19 14:32:00,52.0,25.0,30.20,WNW,285,3.0,10.0,34,0.00,,,0.01,,2013-03-19 19:32:00,
2013-03-19 14:42:00,52.0,25.0,30.20,WNW,285,3.0,10.0,34,0.00,,,0.01,,2013-03-19 19:42:00,
2013-03-19 14:53:00,52.0,19.0,30.20,SSW,212,4.0,11.0,27,0.00,,,0.01,,2013-03-19 19:53:00,
2013-03-19 15:02:00,53.0,20.0,30.20,West,264,6.0,9.0,27,0.00,,,0.01,,2013-03-19 20:02:00,
2013-03-19 15:12:00,53.0,21.0,30.19,West,278,5.0,11.0,28,0.00,,,0.01,,2013-03-19 20:12:00,
2013-03-19 15:22:00,53.0,21.0,30.19,West,278,5.0,11.0,28,0.00,,,0.01,,2013-03-19 20:22:00,
2013-03-19 15:32:00,53.0,20.0,30.19,West,263,6.0,11.0,27,0.00,,,0.01,,2013-03-19 20:32:00,
2013-03-19 15:42:00,53.0,20.0,30.19,West,263,6.0,11.0,27,0.00,,,0.01,,2013-03-19 20:42:00,
2013-03-19 15:53:00,54.0,20.0,30.19,WSW,251,6.0,10.0,26,0.00,,,0.01,,2013-03-19 20:53:00,
2013-03-19 16:02:00,53.0,19.0,30.19,West,277,6.0,11.0,26,0.00,,,0.01,,2013-03-19 21:02:00,
2013-03-19 16:12:00,53.0,19.0,30.19,West,277,6.0,11.0,26,0.00,,,0.01,,2013-03-19 21:12:00,
2013-03-19 16:22:00,53.0,19.0,30.19,SW,220,2.0,8.0,26,0.00,,,0.01,,2013-03-19 21:22:00,
2013-03-19 16:33:00,53.0,19.0,30.19,NW,315,4.0,8.0,26,0.00,,,0.01,,2013-03-19 21:33:00,
2013-03-19 16:43:00,53.0,19.0,30.19,NW,315,4.0,8.0,26,0.00,,,0.01,,2013-03-19 21:43:00,
2013-03-19 16:53:00,53.0,19.0,30.19,West,264,3.0,8.0,26,0.00,,,0.01,,2013-03-19 21:53:00,
2013-03-19 17:03:00,53.0,20.0,30.19,West,264,3.0,8.0,27,0.00,,,0.01,,2013-03-19 22:03:00,
2013-03-19 17:12:00,53.0,20.0,30.19,West,264,3.0,8.0,27,0.00,,,0.01,,2013-03-19 22:12:00,
2013-03-19 17:23:00,52.0,20.0,30.19,WNW,288,2.0,5.0,28,0.00,,,0.01,,2013-03-19 22:23:00,
2013-03-19 17:33:00,52.0,19.0,30.19,West,271,0.0,2.0,27,0.00,,,0.01,,2013-03-19 22:33:00,
2013-03-19 17:43:00,52.0,19.0,30.19,West,271,0.0,2.0,27,0.00,,,0.01,,2013-03-19 22:43:00,
2013-03-19 17:53:00,52.0,17.0,30.19,West,280,0.0,2.0,25,0.00,,,0.01,,2013-03-19 22:53:00,
2013-03-19 18:02:00,52.0,14.0,30.19,WNW,301,1.0,5.0,22,0.00,,,0.01,,2013-03-19 23:02:00,
2013-03-19 18:12:00,52.0,14.0,30.19,WNW,301,1.0,5.0,22,0.00,,,0.01,,2013-03-19 23:12:00,
2013-03-19 18:22:00,52.0,18.0,30.19,WNW,299,1.0,2.0,26,0.00,,,0.01,,2013-03-19 23:22:00,
2013-03-19 18:32:00,51.0,18.0,30.19,WNW,289,2.0,5.0,27,0.00,,,0.01,,2013-03-19 23:32:00,
2013-03-19 18:42:00,51.0,18.0,30.19,WNW,289,2.0,5.0,27,0.00,,,0.01,,2013-03-19 23:42:00,
2013-03-19 18:52:00,50.0,19.0,30.19,WNW,296,3.0,5.0,29,0.00,,,0.01,,2013-03-19 23:52:00,
2013-03-19 19:02:00,50.0,24.0,30.19,NW,309,1.0,5.0,36,0.00,,,0.01,,2013-03-20 00:02:00,
2013-03-19 19:13:00,50.0,24.0,30.19,NW,309,1.0,5.0,36,0.00,,,0.01,,2013-03-20 00:13:00,
2013-03-19 19:22:00,49.0,26.0,30.20,NW,309,0.0,2.0,41,0.00,,,0.01,,2013-03-20 00:22:00,
2013-03-19 19:33:00,48.0,25.0,30.21,NW,318,2.0,3.0,40,0.00,,,0.01,,2013-03-20 00:33:00,
2013-03-19 19:42:00,48.0,25.0,30.21,NW,318,2.0,3.0,40,0.00,,,0.01,,2013-03-20 00:42:00,
2013-03-19 19:52:00,48.0,24.0,30.21,WNW,292,1.0,5.0,38,0.00,,,0.01,,2013-03-20 00:52:00,
2013-03-19 20:03:00,47.0,26.0,30.21,NW,323,0.0,5.0,44,0.00,,,0.01,,2013-03-20 01:03:00,
2013-03-19 20:12:00,47.0,26.0,30.21,NW,323,0.0,5.0,44,0.00,,,0.01,,2013-03-20 01:12:00,
2013-03-19 20:22:00,46.0,25.0,30.22,NW,323,0.0,0.0,44,0.00,,,0.01,,2013-03-20 01:22:00,
2013-03-19 20:32:00,46.0,25.0,30.21,NW,323,0.0,0.0,44,0.00,,,0.01,,2013-03-20 01:32:00,
2013-03-19 20:42:00,46.0,25.0,30.21,NW,323,0.0,0.0,44,0.00,,,0.01,,2013-03-20 01:42:00,
2013-03-19 20:53:00,45.0,27.0,30.22,NW,323,0.0,0.0,50,0.00,,,0.01,,2013-03-20 01:53:00,
2013-03-19 21:02:00,44.0,30.0,30.21,NW,323,0.0,0.0,58,0.00,,,0.01,,2013-03-20 02:02:00,
2013-03-19 21:12:00,44.0,30.0,30.21,NW,323,0.0,0.0,58,0.00,,,0.01,,2013-03-20 02:12:00,
2013-03-19 21:22:00,43.0,29.0,30.21,NW,323,0.0,0.0,57,0.00,,,0.01,,2013-03-20 02:22:00,
2013-03-19 21:32:00,43.0,30.0,30.22,NW,323,0.0,0.0,59,0.00,,,0.01,,2013-03-20 02:32:00,
2013-03-19 21:42:00,43.0,30.0,30.22,NW,323,0.0,0.0,59,0.00,,,0.01,,2013-03-20 02:42:00,
2013-03-19 21:53:00,43.0,31.0,30.22,NW,323,0.0,0.0,62,0.00,,,0.01,,2013-03-20 02:53:00,
2013-03-19 22:02:00,42.0,30.0,30.21,NW,323,0.0,0.0,63,0.00,,,0.01,,2013-03-20 03:02:00,
2013-03-19 22:12:00,42.0,33.0,30.22,NW,323,0.0,0.0,70,0.00,,,0.01,,2013-03-20 03:12:00,
2013-03-19 22:22:00,42.0,33.0,30.22,NW,323,0.0,0.0,70,0.00,,,0.01,,2013-03-20 03:22:00,
2013-03-19 22:33:00,42.0,34.0,30.21,NW,323,0.0,0.0,73,0.00,,,0.01,,2013-03-20 03:33:00,
2013-03-19 22:42:00,42.0,34.0,30.21,NW,323,0.0,0.0,73,0.00,,,0.01,,2013-03-20 03:42:00,
2013-03-19 22:53:00,41.0,33.0,30.21,NW,323,0.0,0.0,73,0.00,,,0.01,,2013-03-20 03:53:00,
2013-03-19 23:03:00,41.0,32.0,30.21,NW,323,0.0,0.0,71,0.00,,,0.01,,2013-03-20 04:03:00,
2013-03-19 23:12:00,41.0,32.0,30.21,NW,323,0.0,0.0,71,0.00,,,0.01,,2013-03-20 04:12:00,
2013-03-19 23:23:00,40.0,31.0,30.21,NW,323,0.0,0.0,71,0.00,,,0.01,,2013-03-20 04:23:00,
2013-03-19 23:32:00,39.0,31.0,30.21,NW,323,0.0,0.0,74,0.00,,,0.01,,2013-03-20 04:32:00,
2013-03-19 23:43:00,39.0,31.0,30.21,NW,323,0.0,0.0,74,0.00,,,0.01,,2013-03-20 04:43:00,
2013-03-19 23:53:00,38.0,30.0,30.22,NW,323,0.0,0.0,73,0.00,,,0.01,,2013-03-20 04:53:00,